Regional Weather Roundup
Issued by NWS

Home | Current Version | Previous Version | Text Only | Print | Product List | Glossary Off
Versions: 1 2 3 4 5 6 7 8 9 10 11 12 13 14 15 16 17 18 19 20 21 22 23 24 25 26 27 28 29 30 31 32 33 34 35 36 37 38 39 40 41 42 43 44 45 46 47 48 49 50

000
ASUS45 KTFX 271410
RWRMT
MONTANA REGIONAL WEATHER ROUNDUP
NATIONAL WEATHER SERVICE GREAT FALLS MT
800 AM MDT THU AUG 27 2015

NOTE: "FAIR" INDICATES FEW OR NO CLOUDS BELOW 12000 FEET WITH NO
SIGNIFICANT WEATHER AND/OR OBSTRUCTIONS TO VISIBILITY.

MTZ001>007-043-271500-
WEST OF THE DIVIDE

CITY           SKY/WX    TMP DP  RH WIND       PRES   REMARKS
KALISPELL      CLOUDY    48  41  76 SW3       30.05R SMOKE
MISSOULA       CLOUDY    55  38  52 NW3       30.09R HAZE
BUTTE          LGT RAIN  58  44  60 E3        30.23R
MULLAN PASS    MOSUNNY   60  34  37 NW6       30.24R HAZE
DEER LODGE       N/A     57  45  62 CALM      30.19R
EUREKA           N/A     48  39  71 CALM      30.06R
HAMILTON         N/A     59  45  58 W2        30.10R
LIBBY            N/A     52  43  71 CALM      30.06R
PLAINS           N/A     53  42  66 CALM      30.06R
RONAN            N/A     53  46  77 E1        30.09R
$$

MTZ008-052>055-271500-
SOUTHWEST MONTANA

CITY           SKY/WX    TMP DP  RH WIND       PRES   REMARKS
BOZEMAN        PTSUNNY   61  48  62 S6        30.16R
DILLON         PTSUNNY   61  44  53 S6        30.21R
W YELLOWSTONE  MOSUNNY   39  37  93 CALM      30.35R
$$

MTZ009-010-012-014-046-048-049-054-271500-
EAST SLOPES AND CENTRAL MONTANA

CITY           SKY/WX    TMP DP  RH WIND       PRES   REMARKS
CUT BANK       CLOUDY    54  45  71 NW6       30.04R HAZE
GREAT FALLS    PTSUNNY   62  41  46 SW6       30.03S
MALMSTROM AFB  PTSUNNY   62  43  50 S5        30.03S
HELENA         PTSUNNY   62  42  47 W3        30.11R
CONRAD           N/A     55  49  80 CALM      30.04S
$$

MTZ011-013-016-021-045-047-050-051-271500-
NORTH CENTRAL MONTANA

CITY           SKY/WX    TMP DP  RH WIND       PRES   REMARKS
HAVRE          SUNNY     54  47  77 W8        29.98F HAZE
LEWISTOWN      MOSUNNY   61  47  59 E6        30.07R
N BAR RANCH      N/A     57  45  62 W7        30.11S HAZE
CHINOOK          N/A     55  52  88 CALM      29.97F
FORT BENTON      N/A     59  45  58 CALM      30.01S
$$

MTZ017>020-022>027-061-062-271500-
NORTHEAST MONTANA

CITY           SKY/WX    TMP DP  RH WIND       PRES   REMARKS
GLASGOW        MOSUNNY   61  53  75 E7        29.97S
JORDAN           N/A     61  49  64 CALM      29.99S
SIDNEY         MOSUNNY   63  57  82 CALM      29.97S
WOLF POINT     MOSUNNY   59  53  80 E5        29.98R
MALTA            N/A     56  50  80 CALM      29.96R
PLENTYWOOD       N/A     61  57  88 CALM      29.99S
POPLAR           N/A     59  55  88 N5        29.98S
$$

MTZ028>42-056>058-271500-
SOUTHCENTRAL AND SOUTHEAST MONTANA

CITY           SKY/WX    TMP DP  RH WIND       PRES   REMARKS
BAKER          CLOUDY    65  62  90 E6        30.01R
BILLINGS       CLOUDY    70  51  51 SW16      30.07R
LIVINGSTON     SUNNY     62  45  53 VRB5      30.13S
MILES CITY     PTSUNNY   67  60  78 NE7       29.99S
EKALAKA          N/A     66  60  81 S3        30.00S
FORSYTH          N/A     70  52  52 CALM      30.00R
LAUREL           N/A     70  49  47 SW10      30.06R
$$

REGIONAL REPORTS...DAKOTAS

CITY           SKY/WX    TMP DP  RH WIND       PRES   REMARKS
WILLISTON      MOSUNNY   62  57  83 CALM      29.98S
MINOT          MOSUNNY   59  56  89 N6        29.96F
DICKINSON      CLOUDY    63  61  93 S3        29.99S FOG
CROSBY           N/A     55  55 100 N5        30.00F
BISMARCK       PTSUNNY   63  61  93 NE7       29.97R
GRAND FORKS    PTSUNNY   58  53  84 S6        29.99S
FARGO          MOSUNNY   64  56  75 S10       29.99S
BUFFALO SD       N/A     65  60  84 SE5       29.96R
RAPID CITY     CLOUDY    64  61  90 N5        30.03F
$$

REGIONAL REPORTS...WYOMING/IDAHO/WASHINGTON

CITY           SKY/WX    TMP DP  RH WIND       PRES   REMARKS
GILLETTE       LGT RAIN  64  54  69 NW15G24   30.14R
SHERIDAN       CLOUDY    66  54  65 S7        30.09F
BUFFALO WY     CLOUDY    61  55  81 SE7       30.18F
CODY           MOSUNNY   57  48  72 S9        30.20R
YELLOWSTONE LA   N/A     43  40  89 CALM      30.42S
IDAHO FALLS    MOSUNNY   52  49  89 CALM      30.26R
SALMON         PTSUNNY   57  45  62 NW3       30.17R
BOISE          CLOUDY    71  47  42 SE7       30.11R
SPOKANE        MOCLDY    62  37  39 S6        30.04R SMOKE
$$

REGIONAL REPORTS...ALBERTA

CITY           SKY/WX    TMP DP  RH WIND       PRES   REMARKS
EDMONTON       PTSUNNY   54  52  94 SW2       29.94S FOG
CALGARY        CLOUDY    55  48  76 SW6       29.99F SMOKE
LETHBRIDGE     PTSUNNY   54  50  87 SW7       30.00S SMOKE
MEDICINE HAT   CLOUDY    55  50  82 S7        29.96F SMOKE
WATERTON GATE    N/A     46  45  93 NE1         N/A
ONEFOUR          N/A     63  48  59 E7          N/A
$$

REGIONAL REPORTS...SASKATCHEWAN

CITY           SKY/WX    TMP DP  RH WIND       PRES   REMARKS
SWIFT CURRENT  SUNNY     63  54  72 SW12      29.96F
REGINA         PTSUNNY   55  54  94 SE8       29.99F
SASKATOON      PTSUNNY   55  55 100 E5        29.98S
CYPRESS HILLS    N/A     63  48  59 SW2         N/A
VAL MARIE        N/A     54  52  94 E3          N/A
ROCKGLEN         N/A     59  55  88 S7          N/A
$$


USA.gov is the U.S. government's official web portal to all federal, state and local government web resources and services.